Weather History for Orange, MA

Change the Weather History Date:

Thursday, November 11, 2010

  Actual Average Record
Temperature  
Mean Temperature 41 °F -  
Max Temperature 57 °F 45 °F 64 °F (2002)
Min Temperature 25 °F 26 °F 19 °F (2003)
Degree Days  
Heating Degree Days 24    
Moisture  
Dew Point 22 °F    
Average Humidity 65    
Maximum Humidity 96    
Minimum Humidity 15    
Precipitation  
Precipitation 0.00 in - - ()
Sea Level Pressure  
Sea Level Pressure 30.42 in    
Wind  
Wind Speed 3 mph (NNE)    
Max Wind Speed 12 mph    
Max Gust Speed 21 mph    
Visibility 10 miles    
Events      
Averages and records for this station are not official NWS values.
T = Trace of Precipitation, MM = Missing Value Source: NWS Daily Summary

Daily Weather History Graph

Daily Weather History Graph

Search for Another Location

Airport:

Trip Planner

Search our weather history database for the weather conditions in past years. The results will help you decide how hot, cold, wet, or windy it might be!

Date:

Astronomy

Nov. 11, 2010 Rise Set
Actual Time 6:35 AM EST 4:30 PM EST
Civil Twilight 6:05 AM EST 5:00 PM EST
Nautical Twilight 5:31 AM EST 5:34 PM EST
Astronomical Twilight 4:58 AM EST 6:07 PM EST
Moon 11:34 AM EST (11/11) 9:32 PM EST (11/11)
Length of Visible Light 10h 55m
Length of Day
9h 55m
Waxing Crescent, 31% of the Moon is Illuminated
Nov 11
Waxing Crescent
Nov 13
First Quarter
Nov 21
Full
Nov 28
Last Quarter
Dec 5
New

Hourly Weather History & Observations

Time (EST) Temp. Windchill Dew Point Humidity Pressure Visibility Wind Dir Wind Speed Gust Speed Precip Events Conditions
12:52 AM 34.0 °F 31.0 °F 28.0 °F 79% 30.29 in 10.0 mi North 3.5 mph - N/A   Clear
1:52 AM 32.0 °F - 27.0 °F 82% 30.31 in 10.0 mi Calm Calm - N/A   Clear
2:52 AM 28.9 °F - 27.0 °F 92% 30.33 in 10.0 mi Calm Calm - N/A   Clear
3:52 AM 27.0 °F - 26.1 °F 96% 30.35 in 10.0 mi Calm Calm - N/A   Clear
4:52 AM 27.0 °F - 25.0 °F 92% 30.38 in 10.0 mi Calm Calm - N/A   Clear
5:52 AM 26.1 °F - 24.1 °F 92% 30.40 in 10.0 mi Calm Calm - N/A   Clear
6:52 AM 25.0 °F - 24.1 °F 96% 30.42 in 10.0 mi Calm Calm - N/A   Clear
7:52 AM 30.9 °F - 28.9 °F 92% 30.45 in 10.0 mi Calm Calm - N/A   Clear
8:52 AM 39.9 °F - 25.0 °F 55% 30.45 in 10.0 mi Calm Calm - N/A   Clear
9:52 AM 44.1 °F 39.0 °F 16.0 °F 32% 30.45 in 10.0 mi NE 9.2 mph 20.7 mph N/A   Clear
10:52 AM 46.9 °F - 16.0 °F 29% 30.44 in 10.0 mi NE 8.1 mph - N/A   Clear
11:52 AM 51.1 °F - 15.1 °F 24% 30.41 in 10.0 mi NNE 11.5 mph - N/A   Clear
12:52 PM 54.0 °F - 15.1 °F 22% 30.40 in 10.0 mi NNE 11.5 mph 16.1 mph N/A   Clear
1:52 PM 55.9 °F - 10.9 °F 17% 30.40 in 10.0 mi NNE 9.2 mph - N/A   Clear
2:52 PM 57.0 °F - 9.0 °F 15% 30.40 in 10.0 mi NNE 6.9 mph - N/A   Clear
3:52 PM 54.0 °F - 17.1 °F 23% 30.42 in 10.0 mi NNW 4.6 mph - N/A   Clear
4:52 PM 46.0 °F 43.9 °F 23.0 °F 40% 30.43 in 10.0 mi NNW 4.6 mph - N/A   Clear
5:52 PM 37.0 °F - 25.0 °F 62% 30.45 in 10.0 mi Calm Calm - N/A   Clear
6:52 PM 34.0 °F - 26.1 °F 73% 30.48 in 10.0 mi Calm Calm - N/A   Clear
7:52 PM 32.0 °F - 26.1 °F 79% 30.49 in 10.0 mi Calm Calm - N/A   Clear
8:52 PM 28.9 °F - 26.1 °F 89% 30.50 in 10.0 mi Calm Calm - N/A   Clear
9:52 PM 28.0 °F - 25.0 °F 88% 30.49 in 10.0 mi Calm Calm - N/A   Clear
10:52 PM 27.0 °F - 25.0 °F 92% 30.48 in 10.0 mi Calm Calm - N/A   Clear
11:52 PM 26.1 °F - 24.1 °F 92% 30.48 in 10.0 mi Calm Calm - N/A   Clear